TimeGMT,TemperatureF,Dew PointF,Humidity,Sea Level PressureIn,VisibilityMPH,Wind Direction,Wind SpeedMPH,Gust SpeedMPH,PrecipitationIn,Events,Conditions,WindDirDegrees,DateUTC
12:00 AM,40,37,85,30.09,7,ESE,11.2,,,,Scattered Clouds,120,2013-02-19 00:00:00
12:00 AM,41.0,37.4,87,30.06,6.2,SE,10.4,-,N/A,,Partly Cloudy,130,2013-02-19 00:00:00
12:30 AM,39.2,35.6,87,30.06,6.2,ESE,9.2,-,N/A,,Partly Cloudy,110,2013-02-19 00:30:00
1:00 AM,39.2,35.6,87,30.06,6.2,ESE,10.4,-,N/A,,Partly Cloudy,120,2013-02-19 01:00:00
1:30 AM,41.0,35.6,81,30.06,6.2,ESE,9.2,-,N/A,,Partly Cloudy,120,2013-02-19 01:30:00
2:00 AM,41.0,35.6,81,30.06,6.2,ESE,12.7,-,N/A,,Partly Cloudy,120,2013-02-19 02:00:00
2:30 AM,41.0,35.6,81,30.06,6.2,SE,13.8,-,N/A,,Partly Cloudy,130,2013-02-19 02:30:00
3:00 AM,41.0,35.6,81,30.06,6.2,SE,13.8,-,N/A,,Partly Cloudy,130,2013-02-19 03:00:00
3:30 AM,39.2,35.6,87,30.06,6.2,SE,12.7,-,N/A,,Partly Cloudy,140,2013-02-19 03:30:00
4:00 AM,39.2,35.6,87,30.06,6.2,SE,12.7,-,N/A,,Partly Cloudy,130,2013-02-19 04:00:00
4:30 AM,39.2,35.6,87,30.06,6.2,SE,11.5,-,N/A,,Partly Cloudy,140,2013-02-19 04:30:00
5:00 AM,37.4,35.6,93,30.06,6.2,SE,8.1,-,N/A,,Partly Cloudy,140,2013-02-19 05:00:00
5:30 AM,37.4,33.8,87,30.06,6.2,Variable,2.3,-,N/A,,Partly Cloudy,0,2013-02-19 05:30:00
6:00 AM,33,31,91,30.08,9,ESE,4.5,,,,Scattered Clouds,110,2013-02-19 06:00:00
6:00 AM,33.8,32.0,93,30.06,6.2,Variable,2.3,-,N/A,,Partly Cloudy,0,2013-02-19 06:00:00
6:30 AM,30.2,28.4,93,30.06,6.2,ESE,4.6,-,N/A,,Partly Cloudy,110,2013-02-19 06:30:00
7:00 AM,32.0,30.2,93,30.06,6.2,ESE,5.8,-,N/A,,Partly Cloudy,110,2013-02-19 07:00:00
7:30 AM,30.2,30.2,100,30.06,6.2,ESE,4.6,-,N/A,,Scattered Clouds,110,2013-02-19 07:30:00
8:00 AM,32.0,30.2,93,30.09,6.2,ESE,8.1,-,N/A,,Scattered Clouds,110,2013-02-19 08:00:00
8:30 AM,35.6,33.8,93,30.09,6.2,SE,6.9,-,N/A,,Scattered Clouds,130,2013-02-19 08:30:00
9:00 AM,39.2,35.6,87,30.09,5.6,SE,6.9,-,N/A,,Scattered Clouds,130,2013-02-19 09:00:00
9:30 AM,41.0,35.6,81,30.09,6.2,SE,9.2,-,N/A,,Scattered Clouds,130,2013-02-19 09:30:00
10:00 AM,42.8,35.6,76,30.09,6.2,ESE,10.4,-,N/A,,Scattered Clouds,120,2013-02-19 10:00:00
10:30 AM,42.8,35.6,76,30.09,6.2,ESE,9.2,-,N/A,,Scattered Clouds,120,2013-02-19 10:30:00
11:00 AM,44.6,37.4,76,30.09,6.2,ESE,11.5,-,N/A,,Scattered Clouds,120,2013-02-19 11:00:00
11:30 AM,44.6,37.4,76,30.09,6.2,SE,10.4,-,N/A,,Scattered Clouds,130,2013-02-19 11:30:00
12:00 PM,45,37,64,30.11,12,ESE,11.2,,,,Scattered Clouds,110,2013-02-19 12:00:00
12:00 PM,44.6,37.4,76,30.09,6.2,ESE,11.5,-,N/A,,Scattered Clouds,110,2013-02-19 12:00:00
12:30 PM,44.6,35.6,71,30.06,6.2,ESE,11.5,-,N/A,,Scattered Clouds,120,2013-02-19 12:30:00
1:00 PM,46.4,35.6,66,30.06,6.2,ESE,11.5,-,N/A,,Scattered Clouds,120,2013-02-19 13:00:00
1:30 PM,46.4,35.6,66,30.06,6.2,ESE,13.8,-,N/A,,Scattered Clouds,120,2013-02-19 13:30:00
2:00 PM,46.4,37.4,71,30.04,6.2,East,12.7,-,N/A,,Partly Cloudy,100,2013-02-19 14:00:00
2:30 PM,46.4,35.6,66,30.04,6.2,ESE,13.8,-,N/A,,Partly Cloudy,110,2013-02-19 14:30:00
3:00 PM,44.6,35.6,71,30.04,6.2,ESE,13.8,-,N/A,,Partly Cloudy,110,2013-02-19 15:00:00
3:30 PM,44.6,37.4,76,30.04,6.2,ESE,11.5,-,N/A,,Partly Cloudy,120,2013-02-19 15:30:00
4:00 PM,44.6,37.4,76,30.04,6.2,ESE,11.5,-,N/A,,Partly Cloudy,120,2013-02-19 16:00:00
4:30 PM,44.6,35.6,71,30.04,6.2,ESE,12.7,-,N/A,,Partly Cloudy,120,2013-02-19 16:30:00
5:00 PM,42.8,35.6,76,30.04,6.2,ESE,9.2,-,N/A,,Partly Cloudy,120,2013-02-19 17:00:00
5:30 PM,41.0,35.6,81,30.04,6.2,ESE,8.1,-,N/A,,Partly Cloudy,110,2013-02-19 17:30:00
6:00 PM,40,34,72,30.06,9,East,8.9,,,,Mist,100,2013-02-19 18:00:00
6:00 PM,41.0,35.6,81,30.04,6.2,East,8.1,-,N/A,,Partly Cloudy,100,2013-02-19 18:00:00
6:30 PM,35.6,32.0,87,30.04,6.2,East,8.1,-,N/A,,Partly Cloudy,100,2013-02-19 18:30:00
7:00 PM,33.8,32.0,93,30.04,5.0,East,6.9,-,N/A,,Partly Cloudy,100,2013-02-19 19:00:00
7:30 PM,35.6,35.6,100,30.04,5.6,East,6.9,-,N/A,,Partly Cloudy,100,2013-02-19 19:30:00
8:00 PM,35.6,33.8,93,30.04,5.6,ESE,6.9,-,N/A,,Partly Cloudy,110,2013-02-19 20:00:00
8:30 PM,33.8,32.0,93,30.06,5.6,East,5.8,-,N/A,,Partly Cloudy,100,2013-02-19 20:30:00
9:00 PM,35.6,33.8,93,30.04,5.0,East,6.9,-,N/A,,Partly Cloudy,90,2013-02-19 21:00:00
9:30 PM,33.8,33.8,100,30.04,3.1,East,6.9,-,N/A,,Partly Cloudy,90,2013-02-19 21:30:00
10:00 PM,32.0,32.0,100,30.04,2.5,East,6.9,-,N/A,,Partly Cloudy,100,2013-02-19 22:00:00
10:30 PM,33.8,32.0,93,30.04,2.5,ESE,6.9,-,N/A,,Partly Cloudy,120,2013-02-19 22:30:00
11:00 PM,37.4,35.6,93,30.04,2.5,ESE,9.2,-,N/A,,Partly Cloudy,120,2013-02-19 23:00:00
11:30 PM,35.6,35.6,100,30.04,2.5,ESE,5.8,-,N/A,,Partly Cloudy,110,2013-02-19 23:30:00